Regional Weather Roundup
Issued by NWS

Home | Current Version | Previous Version | Text Only | Print | Product List | Glossary Off
Versions: 1 2 3 4 5 6 7 8 9 10 11 12 13 14 15 16 17 18 19 20 21 22 23 24 25 26 27 28 29 30 31 32 33 34 35 36 37 38 39 40 41 42 43 44 45 46 47 48 49 50

000
ASUS44 KMEG 281810
RWRTN
TENNESSEE HOURLY STATE WEATHER ROUNDUP
NATIONAL WEATHER SERVICE MEMPHIS TN
1200 PM CST SUN DEC 28 2014

TNZ002-004-019-021-049-052-054-088>092-281900-
WEST TENNESSEE

CITY           SKY/WX    TMP DP  RH WIND       PRES   REMARKS
MEMPHIS INTL   LGT RAIN  41  36  82 N8        30.17F
NWS MEMPHIS      N/A     39 N/A N/A MISG        N/A
JACKSON        CLOUDY    39  36  87 N8        30.18F WCI  34
DYERSBURG      CLOUDY    37  25  60 N7        30.20F WCI  32
HUNTINGDON     CLOUDY    37  34  89 N3        30.17F
$$

TNZ008-025-027-028-033-062-065-066-281900-
NORTH MIDDLE TENNESSEE

CITY           SKY/WX    TMP DP  RH WIND       PRES   REMARKS
NASHVILLE      CLOUDY    41  39  93 N7        30.14F
CLARKSVILLE    CLOUDY    38  36  92 N12       30.18F FOG     WCI  30
SMYRNA         LGT RAIN  42  40  93 N5        30.14F
CROSSVILLE     CLOUDY    50  46  86 NW3       30.06F
$$

TNZ061-075-076-078-094-096-097-281900-
SOUTH MIDDLE TENNESSEE

CITY           SKY/WX    TMP DP  RH WIND       PRES   REMARKS
$$

TNZ017-018-042-046-047-281900-
NORTHEAST TENNESSEE

CITY           SKY/WX    TMP DP  RH WIND       PRES   REMARKS
TRI CITIES     LGT RAIN  47  45  93 CALM      30.06F FOG
$$

TNZ012-013-036-069-073-074-281900-
CENTRAL EAST TENNESSEE

CITY           SKY/WX    TMP DP  RH WIND       PRES   REMARKS
KNOXVILLE      LGT RAIN  50  49  96 W3        30.07S FOG
OAK RIDGE      LGT RAIN  53  51  93 CALM      30.09S
$$

TNZ083-085-099-281900-
SOUTHEAST TENNESSEE

CITY           SKY/WX    TMP DP  RH WIND       PRES   REMARKS
CHATTANOOGA    CLOUDY    57  55  93 CALM      30.06F FOG
$$

SKY/WX REPORTED AS FAIR MEANS FEW OR NO CLOUDS BELOW
12 THOUSAND FEET.




USA.gov is the U.S. government's official web portal to all federal, state and local government web resources and services.